Columbus, GA

11:48 PM EDT on March 28, 2017 (GMT -0400)
Columbus Metro

Weather History for KCSG - March, 2012

Change the Weather History Date:

Monday, March 5, 2012

  Actual Average Record
Temperature  
Mean Temperature 55 °F 55 °F  
Max Temperature 66 °F 67 °F 84 °F (1989)
Min Temperature 43 °F 44 °F 19 °F (1960)
Degree Days  
Heating Degree Days 10 10  
Month to date heating degree days 27 53  
Since 1 July heating degree days 1377 1830  
Cooling Degree Days 0 0  
Month to date cooling degree days 12 0  
Year to date cooling degree days 23 4  
Growing Degree Days 4 (Base 50)    
Moisture  
Dew Point 23 °F    
Average Humidity 38    
Maximum Humidity 62    
Minimum Humidity 13    
Precipitation  
Precipitation 0.00 in 0.18 in 3.62 in (1929)
Month to date precipitation 1.05 0.88  
Year to date precipitation 10.15 9.17  
Snow  
Snow 0.00 in 0.00 in 0.00 in (2002)
Month to date snowfall 0.0 0.0  
Since 1 July snowfall T 0.3  
Snow Depth -    
Sea Level Pressure  
Sea Level Pressure 30.29 in    
Wind  
Wind Speed 7 mph (NW)    
Max Wind Speed 17 mph    
Max Gust Speed 23 mph    
Visibility 10 miles    
Events      
T = Trace of Precipitation, MM = Missing Value Source: NWS Daily Summary

Daily Weather History Graph

Daily Weather History Graph

Search for Another Location

Airport or City:

Trip Planner

Search our weather history database for the weather conditions in past years. The results will help you decide how hot, cold, wet, or windy it might be!

Date:

Astronomy

Mar. 05, 2012 Rise Set
Actual Time 7:01 AM EST 6:40 PM EST
Civil Twilight 6:37 AM EST 7:05 PM EST
Nautical Twilight 6:08 AM EST 7:33 PM EST
Astronomical Twilight 5:40 AM EST 8:02 PM EST
Moon 4:05 PM EST (3/5) 4:52 AM EST (3/5)
Length of Visible Light 12h 27m
Length of Day
11h 38m
Waxing Gibbous, 91% of the Moon is Illuminated
Mar 5
Waxing Gibbous
Mar 8
Full
Mar 14
Last Quarter
Mar 22
New
Mar 30
First Quarter

Hourly Weather History & Observations

Time (EST) Temp. Windchill Dew Point Humidity Pressure Visibility Wind Dir Wind Speed Gust Speed Precip Events Conditions
12:51 AM 44.1 °F - 30.9 °F 60% 30.14 in 10.0 mi Calm Calm - N/A   Clear
1:51 AM 43.0 °F - 30.0 °F 60% 30.14 in 10.0 mi Calm Calm - N/A   Clear
2:51 AM 44.1 °F 41.5 °F 28.0 °F 53% 30.14 in 10.0 mi SSW 4.6 mph - N/A   Clear
3:51 AM 46.9 °F - 28.9 °F 50% 30.13 in 10.0 mi WSW 10.4 mph - N/A   Clear
4:51 AM 46.9 °F - 28.9 °F 50% 30.13 in 10.0 mi WSW 8.1 mph - N/A   Clear
5:51 AM 48.0 °F - 28.9 °F 48% 30.14 in 10.0 mi WSW 11.5 mph - N/A   Clear
6:51 AM 46.9 °F - 28.9 °F 50% 30.18 in 10.0 mi West 8.1 mph - N/A   Clear
7:51 AM 48.9 °F - 30.0 °F 48% 30.22 in 10.0 mi West 8.1 mph - N/A   Clear
8:51 AM 54.0 °F - 32.0 °F 43% 30.25 in 10.0 mi WNW 10.4 mph - N/A   Clear
9:51 AM 57.9 °F - 32.0 °F 37% 30.27 in 10.0 mi NW 10.4 mph 18.4 mph N/A   Clear
10:51 AM 61.0 °F - 30.0 °F 31% 30.29 in 10.0 mi NW 13.8 mph 23.0 mph N/A   Clear
11:51 AM 64.0 °F - 23.0 °F 21% 30.30 in 10.0 mi NNW 17.3 mph 21.9 mph N/A   Clear
12:51 PM 64.4 °F - 17.6 °F 16% 30.31 in 10.0 mi NNW 9.2 mph 19.6 mph N/A   Clear
1:51 PM 64.9 °F - 17.1 °F 16% 30.30 in 10.0 mi North 17.3 mph 23.0 mph N/A   Clear
2:51 PM 64.9 °F - 12.0 °F 13% 30.30 in 10.0 mi North 9.2 mph 21.9 mph N/A   Clear
3:51 PM 64.4 °F - 12.2 °F 13% 30.30 in 10.0 mi North 13.8 mph - N/A   Clear
4:51 PM - - - N/A% 30.32 in 10.0 mi NW 10.4 mph - N/A   Clear
5:33 PM 64.4 °F - 12.2 °F 13% 30.32 in 10.0 mi NNW 11.5 mph - N/A   Clear
5:51 PM 63.0 °F - 15.1 °F 16% 30.33 in 10.0 mi North 5.8 mph - N/A   Clear
6:51 PM 60.1 °F - 15.1 °F 17% 30.35 in - North - - N/A   Unknown
7:14 PM - - - N/A% 30.37 in 10.0 mi North 6.9 mph - N/A   Clear
7:22 PM 57.2 °F - 17.6 °F 21% 30.37 in 10.0 mi North 6.9 mph - N/A   Clear
7:51 PM 57.2 °F - 17.6 °F 21% 30.38 in 10.0 mi North 8.1 mph - N/A   Clear
8:51 PM - - - N/A% 30.40 in - North - - N/A   Unknown
9:51 PM - - - N/A% 30.43 in - North - - N/A   Unknown
10:51 PM 50.0 °F - 19.9 °F 31% 30.44 in 10.0 mi NNE 5.8 mph - N/A   Clear
11:51 PM - - - N/A% 30.45 in - North - - N/A   Unknown